TimeEDT,TemperatureF,Dew PointF,Humidity,Sea Level PressureIn,VisibilityMPH,Wind Direction,Wind SpeedMPH,Gust SpeedMPH,PrecipitationIn,Events,Conditions,WindDirDegrees,DateUTC
12:55 AM,39.0,33.1,79,29.98,10.0,West,6.9,-,N/A,,Clear,270,2013-06-03 04:55:00
1:55 AM,39.9,34.0,79,29.97,10.0,WNW,4.6,-,N/A,,Clear,290,2013-06-03 05:55:00
2:55 AM,39.0,33.1,79,29.97,10.0,NW,3.5,-,N/A,,Clear,310,2013-06-03 06:55:00
3:55 AM,41.0,34.0,76,29.96,10.0,WNW,8.1,-,N/A,,Clear,300,2013-06-03 07:55:00
4:55 AM,39.9,34.0,79,29.96,10.0,WNW,10.4,-,N/A,,Clear,290,2013-06-03 08:55:00
5:55 AM,39.9,34.0,79,29.97,10.0,West,8.1,-,N/A,,Clear,280,2013-06-03 09:55:00
6:55 AM,41.0,34.0,76,29.98,10.0,West,8.1,18.4,N/A,,Clear,280,2013-06-03 10:55:00
7:55 AM,43.0,34.0,71,29.99,10.0,WNW,13.8,19.6,N/A,,Clear,290,2013-06-03 11:55:00
8:55 AM,45.0,34.0,65,30.00,10.0,WNW,16.1,21.9,N/A,,Clear,300,2013-06-03 12:55:00
9:55 AM,46.9,33.1,59,30.01,10.0,WNW,13.8,23.0,N/A,,Partly Cloudy,290,2013-06-03 13:55:00
10:55 AM,48.9,33.1,54,30.01,10.0,WNW,13.8,21.9,N/A,,Partly Cloudy,290,2013-06-03 14:55:00
11:55 AM,48.9,34.0,56,30.01,10.0,NW,18.4,27.6,N/A,,Partly Cloudy,310,2013-06-03 15:55:00
12:55 PM,50.0,34.0,54,30.02,10.0,WNW,16.1,21.9,N/A,,Clear,300,2013-06-03 16:55:00
1:55 PM,51.1,33.1,50,30.03,10.0,WNW,19.6,27.6,N/A,,Clear,300,2013-06-03 17:55:00
2:55 PM,50.0,33.1,52,30.03,10.0,WNW,21.9,28.8,N/A,,Clear,300,2013-06-03 18:55:00
3:55 PM,50.0,36.0,59,30.05,10.0,NW,13.8,23.0,N/A,,Clear,320,2013-06-03 19:55:00
4:55 PM,48.9,34.0,56,30.04,10.0,WNW,18.4,27.6,N/A,,Clear,300,2013-06-03 20:55:00
5:55 PM,48.0,33.1,56,30.04,10.0,NW,19.6,27.6,N/A,,Clear,310,2013-06-03 21:55:00
6:55 PM,46.9,32.0,56,30.05,10.0,NW,16.1,-,N/A,,Clear,320,2013-06-03 22:55:00
7:55 PM,46.0,30.9,56,30.06,10.0,NW,13.8,19.6,N/A,,Clear,310,2013-06-03 23:55:00
8:55 PM,44.1,30.9,60,30.07,10.0,NW,11.5,-,N/A,,Clear,310,2013-06-04 00:55:00
9:55 PM,41.0,30.9,67,30.08,10.0,NW,5.8,-,N/A,,Clear,310,2013-06-04 01:55:00
10:55 PM,41.0,30.9,67,30.10,10.0,West,5.8,-,N/A,,Clear,280,2013-06-04 02:55:00
11:55 PM,42.1,30.0,62,30.10,10.0,WNW,8.1,-,N/A,,Clear,290,2013-06-04 03:55:00